Погода в Уусикаупунки

Финляндия     60°48′06″N   21°25′19″E
темп.,
°C
ветер,
м/с
пор.,
м/с
влажн.,
%
обл.,
%
осадки,
мм/ч
давл.,
гПа
погр.,
м
22 сентября, ср
ср2200:00+4всв22860 0.0 102339
03:00+3в2283100 0.0 102434
06:00+3вюв2286100 0.0 102352
09:00+5юв2482100 0.0 1024125
12:00+9ююв3462100 0.0 1023558
15:00+10ю4561100 0.0 1021666
18:00+9ю4773100 0.0 1019557
21:00+9ю5978100 0.0 1017510
23 сентября, чт
чт2300:00+9ю61077100 0.0 1015640
03:00+10ююв7118297 0.0 1012636
06:00+10ююв71386100 0.0 1007714
09:00+11ююв91488100 0.0 1004945
12:00+10ююв101790100 0.3 999926
15:00+10ююв101695100 4.8 993909
18:00+10ююв111994100 8.2 9871129
21:00+11ююв3796100 23.9 984574
24 сентября, пт
пт2400:00+9в2895100 10.8 983817
03:00+10вюв3597100 12.6 983318
06:00+10вюв349566 0.0 987214
09:00+9вюв4895100 0.1 991434
12:00+9вюв468984 0.0 993475
15:00+10юв2383100 0.1 995563
18:00+9юв3588100 0.0 996375
21:00+9ююв3692100 0.1 996325
25 сентября, сб
сб2500:00+9зсз3686100 0.6 996429
03:00+7з258344 0.1 996171
06:00+7юз228631 0.0 997105
09:00+8ююв118040 0.0 99790
12:00+12з226414 0.0 1000742
15:00+12сз57615 0.0 1003845
18:00+11сз59735 0.0 1006815
21:00+10сз510775 0.0 1010595
26 сентября, вс
вс2600:00+9сз510744 0.0 1012694
03:00+9сз510730 0.0 1015511
06:00+8сз497748 0.0 1017322
09:00+9зсз38735 0.0 1019408
12:00+12з35575 0.0 1022544
15:00+13юз356456 0.0 1023520
18:00+12ююз37735 0.0 1024358
21:00+9ю368632 0.0 1025117